User: anonymous   Login
Location: Bay Ridge
(40.6340°N, 74.0146°W)
Time: 10:51:39
(UTC+00:00)
Language:

Cosmos 1937 Rocket - Orbit

View from above orbital plane
View from above orbital plane
View from above satellite
View from above satellite

Ground track
Ground track

The orbit data is extracted from the following two-line orbital elements,

1 19039U 88029B   20028.82883468 +.00000044 +00000-0 +23189-4 0  9993
2 19039 074.0498 339.5029 0025027 275.0600 084.7698 14.38463661667972
Epoch (UTC): 28 January 2020 19:53:31
Eccentricity: 0.0025027
inclination: 74.0498°
perigee height: 746 km
apogee height: 781 km
right ascension of ascending node: 339.5029°
argument of perigee: 275.0600°
revolutions per day: 14.38463661
mean anomaly at epoch: 84.7698°
orbit number at epoch: 66797

The dashed part of the orbit path shows where the satellite is in the earth's shadow,  

DLR